Content
SEND FEEDBACK

Daily
Averages
Monthly
Summary
Mali

KATI, MALI


Home > Africa > Mali
Elevation: 1079 feet     Latitude: 12 37N     Longitude: 008 01W

WEATHER
 
SELECT A DAY
Number of Records: 193,704;   Date Range: 7/1/96 - 8/31/14
 
SHARE

PRINT THIS DATA

[ ← Previous Day ]
WEATHER ALMANAC - JANUARY 31, 2013
[ Next Day → ]
[ °C ]   °F
Weather ElementAverageHighLow
Temperature81.8 °F93.2 °F (2:00 pm)68 °F (7:00 am)
Dewpoint33.8 °F41 °F (1:30 am)26.6 °F (11:00 am)
Humidity19 %33 % (7:00 am)10 % (1:30 pm)
Barometer30.00 in30.04 in (8:30 am)29.92 in (3:30 pm)
Wind Speed11.8 mph17.3 mph (10:30 am)
Weather ElementAverage
Visibility3.7 mi
Wind DirectionENE (59.6 °)

Weather ElementTotal
Precipitation---
Cooling Degree Days15.6 (Base 65)
Growing Degree Days30.6 (Base 50)
Averaged from 46 records on January 31, 2013
WEATHER CONDITIONS BREAKOUT
WIND DIRECTION BREAKOUT
WEATHER BY HOUR - JANUARY 31, 2013
[ °C ]   °F
Local TimeTemperatureDewpointHumidityBarometerVisibilityWind DirectionWind SpeedGust SpeedPrecipitationEventsConditions
12:30 AM80.6 °F39.2 °F23 %30.01 inNE (50°)15.0 mphClear
1:00 AM78.8 °F39.2 °F24 %30.01 inNE (50°)12.7 mphClear
1:30 AM78.8 °F41.0 °F26 %29.98 inNE (50°)12.7 mphClear
2:00 AM77.0 °F39.2 °F26 %29.98 inNE (50°)12.7 mphClear
2:30 AM75.2 °F41.0 °F29 %29.98 inNE (50°)10.4 mphClear
3:00 AM75.2 °F39.2 °F27 %29.98 inNE (50°)9.2 mphClear
3:30 AM75.2 °F37.4 °F25 %29.98 inNE (50°)13.8 mphClear
4:00 AM75.2 °F37.4 °F25 %29.98 inNE (50°)11.5 mphClear
4:30 AM73.4 °F39.2 °F29 %29.98 inNE (50°)10.4 mphClear
5:00 AM73.4 °F37.4 °F27 %29.98 inNE (40°)10.4 mphClear
5:30 AM73.4 °F37.4 °F27 %29.98 inNE (40°)10.4 mphClear
6:00 AM71.6 °F35.6 °F27 %29.98 inNE (40°)9.2 mphClear
6:30 AM71.6 °F35.6 °F27 %30.01 inNE (40°)9.2 mphClear
7:00 AM68.0 °F37.4 °F33 %30.01 inNE (50°)5.8 mphClear
7:30 AM71.6 °F37.4 °F29 %30.01 inNE (40°)6.9 mphClear
8:00 AM73.4 °F35.6 °F25 %30.01 inNE (50°)6.9 mphClear
8:30 AM75.2 °F35.6 °F24 %30.04 inENE (60°)11.5 mphClear
9:00 AM75.2 °F35.6 °F24 %30.04 inENE (60°)11.5 mphClear
9:30 AM77.0 °F35.6 °F22 %30.04 inENE (70°)15.0 mphClear
10:00 AM80.6 °F33.8 °F18 %30.04 in5.0 miEast (80°)16.1 mph
10:30 AM84.2 °F28.4 °F13 %30.04 in3.7 miEast (90°)17.3 mph
11:00 AM86.0 °F26.6 °F12 %30.04 in3.7 miEast (90°)17.3 mph
11:30 AM86.0 °F28.4 °F12 %30.04 in5.0 miENE (70°)15.0 mph
12:00 PM87.8 °F26.6 °F11 %30.01 in5.0 miEast (80°)16.1 mph
12:30 PM89.6 °F28.4 °F11 %30.01 in5.0 miEast (80°)13.8 mph
1:00 PM91.4 °F30.2 °F11 %30.01 in5.0 miEast (90°)12.7 mph
1:30 PM91.4 °F26.6 °F10 %29.98 in5.0 miEast (80°)12.7 mph
2:00 PM93.2 °F28.4 °F10 %29.98 in5.0 miEast (80°)12.7 mph
2:30 PM93.2 °F30.2 °F11 %29.95 in5.0 miENE (60°)12.7 mph
3:00 PM93.2 °F30.2 °F11 %29.95 in5.0 miEast (90°)10.4 mph
3:30 PM93.2 °F32.0 °F11 %29.92 in5.0 miENE (70°)11.5 mph
4:30 PM93.2 °F32.0 °F11 %29.92 in5.0 miENE (70°)10.4 mph
5:00 PM93.2 °F30.2 °F11 %29.92 in5.0 miENE (60°)10.4 mph
5:30 PM91.4 °F32.0 °F12 %29.95 in5.0 miENE (60°)11.5 mph
6:00 PM89.6 °F30.2 °F12 %29.95 in5.0 miENE (60°)11.5 mph
6:30 PM87.8 °F30.2 °F13 %29.95 in3.7 miENE (60°)11.5 mph
7:00 PM86.0 °F32.0 °F14 %29.98 in1.9 miNE (50°)10.4 mph
7:30 PM86.0 °F32.0 °F14 %29.98 in1.9 miNE (50°)10.4 mph
8:00 PM84.2 °F32.0 °F15 %30.01 in2.5 miNE (50°)11.5 mph
8:30 PM84.2 °F32.0 °F15 %30.01 in2.5 miNE (50°)12.7 mph
9:00 PM82.4 °F32.0 °F16 %30.01 in2.5 miENE (60°)13.8 mph
9:30 PM80.6 °F33.8 °F18 %30.04 in2.5 miENE (60°)12.7 mph
10:00 PM78.8 °F35.6 °F21 %30.04 in1.2 miENE (60°)11.5 mph
10:30 PM78.8 °F33.8 °F20 %30.04 in1.2 miNE (50°)10.4 mph
11:00 PM77.0 °F35.6 °F22 %30.04 in1.2 miNE (50°)9.2 mph
11:30 PM78.8 °F33.8 °F20 %30.04 in1.2 miNE (50°)12.7 mph
Hourly data recorded from GABS, located miles away from Kati, Mali







STORIES FROM OUR PARTNERS